Home > Time Zones > World Clock > Weather > Mali > Bamako > Past weeks

Flag for Mali Weather past 2 weeks in Bamako, Mali

Now
79 °F

Scattered clouds.


Feels Like: 82 °F
Forecast: 72 / 83 °F
Wind: 7 mph from Southwest

Location: Bamako / Senou

Current Time: Jul 31, 2015 at 9:52:14 AM

Latest Report: Jul 31, 2015 at 9:00 AM


Visibility: N/A

Pressure: 29.95 "Hg

Humidity: 84%

Dew point: 73 °F

Location of BamakoLocation

Historic Weather in Bamako — Graph

°F

Bamako temperature yesterday

Maximum temperature yesterday: 88 °F (at 4:00 PM)
Minimum temperature yesterday: 72 °F (at 5:00 AM)
Average temperature yesterday: 79 °F

Past Weeks' High & Low Weather Summary

 TemperatureHumidityPressure
High97 °F (Jul 18, 2:00 PM)100% (Jul 16, 8:00 AM)32.90 "Hg (Jul 16, 8:00 AM)
Low70 °F (Jul 23, 3:00 AM)42% (Jul 18, 2:00 PM)29.86 "Hg (Jul 21, 5:30 PM)
Average80 °F82%29.97 "Hg
* Reported Jul 16 8:00 AM — Jul 31 8:30 AM, Bamako, Weather by CustomWeather, © 2015

Note: Actual official high and low records may vary slightly from our data, if they occured in-between our weather recording intervals... More about our weather records

Advertising

Bamako weather history for previous 24 hours

 ConditionsComfort  
Time TempWeatherWind HumidityBarometerVisibility
8:30 AM
Fri, Jul 31
77 °FPassing clouds.9 mph94%29.98 "HgN/A
8:00 AM77 °FScattered clouds.8 mph94%29.98 "HgN/A
7:30 AM75 °FBroken clouds.7 mph100%29.98 "HgN/A
7:00 AM75 °FPartly sunny.7 mph100%29.98 "HgN/A
6:30 AM75 °FPartly sunny.7 mph100%29.98 "HgN/A
6:00 AM75 °FPassing clouds.7 mph100%29.95 "HgN/A
5:30 AM75 °FPassing clouds.7 mph100%29.95 "HgN/A
5:00 AM75 °FPassing clouds.7 mph100%29.95 "HgN/A
4:30 AM75 °FPassing clouds.7 mph100%29.95 "HgN/A
4:00 AM75 °FPassing clouds.8 mph100%29.95 "HgN/A
3:00 AM77 °FPassing clouds.3 mph100%29.95 "HgN/A
2:30 AM77 °FPassing clouds.3 mph100%29.95 "HgN/A
2:00 AM77 °FPassing clouds.3 mph100%29.95 "HgN/A
1:30 AM77 °FPassing clouds.3 mph100%29.98 "HgN/A
1:00 AM77 °FPassing clouds.2 mph100%29.98 "HgN/A
12:30 AM77 °FPassing clouds.2 mph100%29.98 "HgN/A
12:00 AM77 °FPassing clouds.2 mph100%29.98 "HgN/A
11:30 PM
Thu, Jul 30
77 °FPassing clouds.No wind100%30.01 "HgN/A
11:00 PM77 °FPassing clouds.5 mph100%30.01 "HgN/A
10:30 PM77 °FPassing clouds.2 mph100%29.98 "HgN/A
9:30 PM79 °FPassing clouds.2 mph94%29.98 "HgN/A
9:00 PM77 °FPassing clouds.2 mph100%29.95 "HgN/A
8:30 PM79 °FPassing clouds.2 mph94%29.95 "HgN/A
8:00 PM81 °FPassing clouds.2 mph89%29.95 "HgN/A
7:30 PM81 °FPassing clouds.5 mph84%29.92 "HgN/A
7:00 PM82 °FPassing clouds.7 mph84%29.92 "HgN/A
6:30 PM84 °FPassing clouds.6 mph70%29.92 "HgN/A
6:00 PM86 °FPassing clouds.5 mph62%29.92 "HgN/A
5:30 PM86 °FPassing clouds.6 mph66%29.92 "HgN/A
5:00 PM88 °FPassing clouds.7 mph62%29.92 "HgN/A
4:30 PM88 °FScattered clouds.5 mph59%29.92 "HgN/A
4:00 PM88 °FScattered clouds.2 mph59%29.95 "HgN/A
3:30 PM86 °FScattered clouds.3 mph59%29.95 "HgN/A
3:00 PM82 °FPartly sunny.3 mph70%29.98 "HgN/A
2:30 PM79 °FPartly sunny.1 mph89%29.98 "HgN/A
2:00 PM79 °FLight rain. Scattered clouds.9 mph89%30.01 "Hg5 mi
1:30 PM84 °FLight rain. Scattered clouds.3 mph70%30.01 "HgN/A
1:00 PM86 °FScattered clouds.7 mph62%30.01 "HgN/A
12:30 PM86 °FScattered clouds.7 mph62%30.04 "HgN/A
12:00 PM86 °FScattered clouds.8 mph62%30.04 "HgN/A
11:30 AM84 °FScattered clouds.6 mph66%30.04 "HgN/A
11:00 AM82 °FScattered clouds.6 mph74%30.04 "HgN/A
10:30 AM81 °FScattered clouds.6 mph79%30.04 "HgN/A
10:00 AM81 °FScattered clouds.7 mph79%30.04 "HgN/A
9:30 AM79 °FScattered clouds.6 mph84%30.04 "HgN/A
9:00 AM77 °FScattered clouds.6 mph89%30.04 "HgN/A
Weather by CustomWeather, © 2015

See weather overviewHow to use our weather pages